TABS, Texas Automated Buoy System, NOAA HAZMAT, Ocean Observatory, Real Time Oceanographic Data Supporting Oil Spill Prevention and Response

Texas General Land Office  Texas General
 Land Office
 Oil Spill Prevention
 & Response
Texas Automated Buoy System
Real Time Ocean Observations
Supporting Oil Spill Prevention and Response since 1995
Geochemical and Environmental Research Group

TABS Buoy J -- Texas Automated Buoy System

TABS Buoy J Conditions at 07/06/2015 14:30 UTC (07/06/2015 09:30 CDT)
26° 11.4840'N   97° 3.0420'W
AA3900 DCS - sensor depth 2m
Anemometer height: 4m
Water Depth: 68 feet (20 meters)
Speed: 8.83 cm/s (0.17 kts) Direction: 269 °T (W) Water Temp: 25°C (78 °F)
System Voltage: 12.0 V Signal Strength: -2.7 dB Ping Count: 136
Wind: 3.7 m/s (7.2 kts)
          From 145°T (SE)
Air Temp: 26 °C (79 °F)
Relative Humidity:  90 %
Pressure: 1017.4 mb (30.04 inHg)

  


IMPORTANT: Notice to Mariners


Today's System Data (download)

   Date   |  Time  | VBatt |  SigStr| Comp | Nping| Tx | Ty | ADCP | ADCP | VBatt |
          |  (UTC) | (Oper)|   (dB) | (°M) |      |    |    | Volt | Curr |(sleep)|
==========+========+=======+========+======+======+====+====+======+======+=======+
07/06/2015 00:00:00    12.1   -2.57   264.7    146    4     0   -2.0    7.0   -0.1
07/06/2015 00:30:00    12.0   -2.58   267.5    130    4     0   -2.0    7.0   -0.1
07/06/2015 01:00:00    11.9   -2.52   264.5    139    4     0   -2.0    7.0   -0.1
07/06/2015 01:30:00    11.9   -2.62   266.3    139    4     0   -2.0    7.0   -0.1
07/06/2015 02:00:00    11.9   -2.57   269.6    139    4     0   -2.0    6.0   -0.1
07/06/2015 02:30:00    11.9   -2.43   267.1    128    4     0   -2.0    6.0   -0.1
07/06/2015 03:00:00    11.9   -2.45   265.3    133    4     0   -2.0    6.0   -0.1
07/06/2015 03:30:00    11.8   -2.41   269.8    138    3     0   -2.0    6.0   -0.1
07/06/2015 04:00:00    11.8   -2.37   271.6    137    3     0   -2.0    6.0   -0.1
07/06/2015 04:30:00    11.8   -2.37   277.2    135    3     1   -2.0    6.0   -0.1
07/06/2015 05:00:00    11.8   -2.43   272.6    142    4     0   -3.0    7.0   -0.1
07/06/2015 05:30:00    11.8   -2.49   275.6    131    4     0   -2.0    6.0   -0.1
07/06/2015 06:00:00    11.8   -2.43   274.4    127    4     0   -2.0    6.0   -0.1
07/06/2015 06:30:00    11.8   -2.49   272.7    141    4     0   -3.0    7.0   -0.1
07/06/2015 07:00:00    11.8   -2.50   276.2    134    4     0   -3.0    7.0   -0.1
07/06/2015 07:30:00    11.8   -2.50   275.8    137    4     0   -3.0    6.0   -0.1
07/06/2015 08:00:00    11.8   -2.55   277.2    145    4     0   -3.0    6.0   -0.1
07/06/2015 08:30:00    11.8   -2.58   276.6    142    4     0   -3.0    6.0   -0.1
07/06/2015 09:00:00    11.8   -2.52   268.7    138    4    -1   -3.0    6.0   -0.1
07/06/2015 09:30:00    11.8   -2.58   276.3    137    4     0   -3.0    6.0   -0.1
07/06/2015 10:00:00    11.8   -2.55   278.0    142    3     0   -3.0    6.0   -0.1
07/06/2015 10:30:00    11.8   -2.58   281.9    141    3     0   -3.0    6.0   -0.1
07/06/2015 11:00:00    11.8   -2.67   279.5    140    3     0   -3.0    6.0   -0.1
07/06/2015 11:30:00    11.8   -2.47   275.7    145    3     0   -3.0    6.0   -0.1
07/06/2015 12:00:00    11.8   -2.67   278.2    134    3     0   -3.0    6.0   -0.1
07/06/2015 12:30:00    11.8   -2.86   281.4    152    3     0   -2.0    6.0   -0.1
07/06/2015 13:00:00    11.8   -2.83   279.0    143    3     0   -2.0    6.0   -0.1
07/06/2015 13:30:00    11.9   -3.00   277.3    134    3     0   -2.0    5.0   -0.1
07/06/2015 14:00:00    11.9   -3.24   276.7    138    3     0   -2.0    5.0   -0.1
07/06/2015 14:30:00    12.0   -2.71   270.6    136    3     0   -2.0    5.0   -0.1